SCP
0 0 0 0 0 0 0 0 0 0 0 0 0 0 0 0 0 0 0 -0 -0 -0 0 0 0 0 0 0 -0 -0 -0 -0 -0 -0 -0 -0 0 0 -0 -0 -0 0 0 0
0 0 0 0 0 0 0 0 0 0 0 0 0 0 0 0 0 0 0 0 0 0 0 -0 -0 -0 -0 -0 -0 -0 -0 0 0 0 0 0 0 0 -0 -0 -0 -0 0 0
0 0 0 0 0 0 0 0 0 0 0 0 0 0 0 0 0 0 0 0 0 0 0 0 0 0 0 -0 -0 -0 -0 0 0 0 0 0 0 0 0 0 -0 -0 -0 -0
0 0 0 0 0 0 0 0 0 0 0 0 0 0 0 0 0 0 0 0 0 0 0 0 0 0 0 0 0 0 0 -0 -0 0 0 0 0 0 0 0 0 0 0 0
0 0 0 0 0 0 0 0 0 0 0 0 0 0 0 0 0 0 0 0 0 0 0 0 0 0 0 0 0 0 0 0 0 0 0 0 0 0 0 0 0 0 0 0
0 0 0 0 0 0 0 0 0 0 0 0 0 0 0 0 0 0 0 0 0 0 0 0 0 0 0 0 0 0 0 0 0 0 0 0 0 0 0 0 0 0 0 0
0 0 0 0 0 0 0 0 0 0 0 0 0 0 0 0 0 0 0 0 0 0 0 0 0 0 0 0 0 0 0 0 0 0 0 0 0 0 0 0 0 0 0 0
0 0 0 0 0 0 0 0 0 0 0 0 0 0 0 0 0 0 0 0 0 0 0 0 0 0 0 0 0 0 0 0 0 0 0 0 0 0 0 0 0 0 0 0
0 0 0 0 0 0 0 0 0 0 0 0 0 0 0 0 0 0 0 0 0 0 0 0 0 0 0 0 0 0 0 0 0 0 0 0 0 0 0 0 0 0 0 0
0 0 0 0 0 0 0 0 0 0 0 0 0 0 0 0 0 0 0 0 0 0 0 0 0 0 0 0 0 0 0 0 0 0 0 0 0 0 0 0 0 0 0 0
0 0 0 0 0 0 0 0 0 0 0 0 0 0 0 0 0 0 0 0 0 0 0 0 0 0 0 0 0 0 0 0 0 0 0 0 0 0 0 0 0 0 0 0
0 0 0 0 0 0 0 0 0 0 0 0 0 0 0 0 0 0 0 0 0 0 0 0 0 0 0 0 0 0 0 0 0 0 0 0 0 0 0 0 0 -0 -0 0
0 0 0 0 0 0 0 0 0 0 0 0 0 0 0 0 0 0 0 0 0 0 0 0 0 0 0 0 0 0 0 0 0 0 0 0 0 0 0 0 0 0 0 0
0 0 0 0 0 0 0 0 0 0 0 0 0 0 0 0 0 0 0 0 0 0 0 0 0 0 0 0 0 0 0 0 0 0 0 0 0 0 0 0 0 0 0 0
0 0 0 0 0 0 0 0 0 0 0 0 0 0 0 0 0 0 0 0 0 0 0 0 0 0 0 0 0 0 0 0 0 0 0 0 0 0 0 0 0 0 0 0
0 0 0 0 0 0 0 0 0 0 0 0 0 0 0 0 0 0 0 0 0 0 0 0 0 0 0 0 -0 -0 0 0 0 0 0 0 0 0 0 0 0 0 0 0
0 0 0 0 0 0 0 0 0 0 0 0 0 0 0 0 0 0 0 0 0 0 0 0 0 0 -0 -0 -0 -0 -0 0 0 0 0 0 0 0 0 0 0 0 0 0
0 0 0 0 0 0 0 0 0 0 0 0 0 0 0 0 0 0 0 0 0 0 0 0 0 -0 -0 -0 -0 -0 -0 0 0 0 0 0 0 0 0 0 0 0 0 0
0 0 0 0 0 0 0 0 0 0 0 0 0 0 0 0 0 0 0 0 0 0 0 0 0 0 0 0 0 0 0 0 0 0 0 0 0 0 0 0 0 0 0 0
0 0 0 0 0 0 0 0 0 0 0 0 0 0 0 0 0 0 0 0 0 0 0 0 0 0 0 0 0 0 0 0 0 0 0 0 0 0 0 0 0 0 0 0
0 0 0 0 0 0 0 0 0 0 0 0 0 0 0 0 0 0 0 0 0 0 0 0 0 0 0 0 0 0 0 0 0 0 0 0 0 0 0 0 0 0 0 0
0 0 0 0 0 0 0 0 0 0 0 0 0 0 0 0 0 0 0 0 0 0 0 0 0 0 0 0 0 0 0 0 0 0 0 0 0 0 0 0 0 0 0 0
0 0 0 0 0 0 0 0 0 0 0 0 0 0 0 0 0 0 0 0 0 0 0 0 0 0 0 0 0 0 0 0 0 0 0 0 0 0 0 0 0 0 0 0
0 0 0 0 0 0 0 0 0 0 0 0 0 0 0 0 0 0 0 0 0 0 0 0 0 0 0 0 0 0 0 0 0 0 0 0 0 0 0 0 0 0 0 0
0 0 0 0 0 0 0 0 0 0 0 0 0 0 0 0 0 0 0 0 0 0 0 0 0 0 0 0 0 0 0 0 0 0 0 0 0 0 0 0 0 0 0 0
0 0 0 0 0 0 0 0 0 0 0 0 0 0 0 0 0 0 0 0 0 0 0 0 0 0 0 0 0 0 0 0 0 0 0 0 0 0 0 0 0 0 0 0
0 0 0 0 0 0 0 0 0 0 0 0 0 0 0 0 0 0 0 0 0 0 0 0 0 0 0 0 0 0 0 0 0 0 0 0 0 0 0 0 0 0 0 0
Wind_Speed_500mb
26 27 26 21 27 32 25 31 30 46 45 47 41 24 5 8 9 7 9 18 18 17 22 26 28 31 36 42 44 46 47 50 55 59 64 68 72 75 79 80 80 80 80 72
13 9 17 30 42 31 34 39 42 43 46 34 21 14 6 7 5 6 11 15 19 18 19 24 27 33 41 49 53 53 54 59 61 63 69 75 80 83 82 82 86 91 92 92
12 2 7 15 38 36 30 35 34 36 23 5 6 8 10 8 12 18 19 18 19 25 29 30 32 33 38 42 42 48 60 66 69 73 76 78 78 80 84 88 90 89 90 95
8 9 7 18 4 9 16 20 9 2 6 12 7 4 10 15 28 24 15 17 23 26 30 39 48 47 46 51 50 63 70 74 77 77 81 85 90 95 97 99 103 107 109 106
6 11 17 25 16 17 10 25 2 7 12 12 8 16 20 14 7 13 23 26 29 31 34 38 43 50 57 60 65 72 75 78 78 79 86 94 100 106 109 110 114 118 121 125
4 9 14 2 11 11 4 19 15 14 11 6 6 2 9 20 32 39 38 35 34 36 43 47 51 55 61 69 72 77 77 82 88 94 97 98 100 103 105 103 108 112 126 130
23 15 13 3 12 15 8 21 14 26 12 14 9 23 47 39 37 36 32 31 36 43 46 47 53 61 68 73 76 82 88 96 102 103 103 102 104 102 104 104 106 111 114 124
3 6 19 6 11 13 9 4 12 25 35 36 44 54 42 41 39 33 30 39 48 52 50 54 61 67 73 80 89 97 102 105 106 105 104 104 102 103 98 90 88 92 94 101
16 11 8 20 25 29 32 35 48 45 50 53 56 47 44 42 33 37 45 46 50 51 56 58 62 67 79 89 96 100 101 102 103 103 101 97 91 87 84 78 74 79 79 85
2 16 33 66 65 62 66 63 57 46 55 50 47 51 46 44 47 48 46 48 49 53 56 59 62 73 83 87 89 92 96 99 98 98 97 88 82 81 80 80 79 78 81 88
28 31 53 63 66 69 72 67 66 62 54 51 54 49 44 46 47 47 49 46 48 50 54 59 69 79 79 79 82 87 91 92 93 93 86 82 78 76 71 74 75 82 88 91
26 37 45 47 57 53 47 49 41 47 56 59 59 53 46 44 45 45 45 44 46 48 54 65 74 75 72 71 74 81 87 89 85 81 81 80 81 83 70 66 68 72 78 82
48 71 72 68 64 65 63 63 58 54 60 58 55 49 47 43 42 44 42 42 43 48 59 67 70 69 63 67 71 75 81 81 78 78 77 76 78 81 87 87 73 73 71 72
81 73 61 72 60 63 56 52 53 51 50 47 49 47 42 42 44 41 40 41 44 53 60 61 62 58 59 64 68 74 76 73 71 74 75 76 78 81 84 88 92 95 82 74
76 69 62 64 59 52 51 51 51 49 47 44 43 42 43 43 40 39 38 40 48 56 54 55 55 51 54 59 66 72 72 71 70 74 73 72 72 73 77 81 85 90 94 90
62 55 49 49 48 45 42 43 43 45 45 42 40 40 40 40 40 38 38 43 54 56 47 49 47 47 50 56 62 68 66 71 69 69 67 66 67 72 77 76 78 75 76 75
36 40 43 38 34 36 40 40 37 38 40 38 38 39 41 41 41 40 40 43 50 49 44 43 42 43 44 49 57 61 65 65 63 63 61 61 63 65 65 68 70 69 69 66
41 38 34 33 31 32 34 33 33 33 34 36 38 40 41 43 45 45 45 48 48 43 35 34 35 36 38 42 47 51 55 57 56 55 56 57 58 57 59 60 59 60 61 58
31 29 27 24 22 24 26 28 31 32 32 36 39 41 44 45 46 50 50 52 46 42 29 28 29 30 32 33 38 43 47 50 48 49 50 52 53 53 55 55 54 53 54 57
20 18 18 18 20 22 24 28 32 32 32 39 44 47 49 47 48 51 49 51 39 36 28 26 26 26 26 26 31 36 40 44 47 46 46 47 47 50 53 54 55 56 56 56
18 17 18 18 19 21 24 28 33 36 38 43 49 52 53 52 46 45 47 45 27 28 24 23 24 22 22 24 27 30 33 38 42 44 45 46 46 46 49 52 55 57 57 57
17 15 14 15 18 21 26 30 36 39 41 42 43 46 47 46 40 36 33 34 24 25 23 22 19 19 21 22 24 25 27 30 34 37 39 41 43 45 47 48 50 51 52 53
10 9 14 18 21 25 27 33 35 37 38 36 37 36 37 36 30 30 28 20 21 21 21 19 18 18 19 21 22 23 23 25 27 30 34 36 38 40 42 43 44 45 47 48
6 9 15 20 24 28 28 28 29 28 28 27 26 25 26 25 20 18 23 22 22 20 18 18 18 19 20 22 22 23 23 24 25 26 27 29 31 33 34 36 37 38 38 38
6 10 14 18 20 22 23 23 20 18 19 20 20 22 20 18 20 17 20 19 18 17 16 16 17 19 20 21 21 22 23 24 25 26 27 28 29 29 30 31 32 33 33 34
4 7 8 10 13 15 17 19 19 17 19 18 13 18 18 17 16 15 15 16 15 15 15 16 17 17 18 19 20 21 21 22 23 25 26 28 28 29 29 29 30 31 31 32
4 4 4 7 11 14 15 16 17 17 17 16 17 16 17 16 15 15 15 15 15 15 15 16 17 18 19 20 21 22 23 24 25 25 26 28 29 30 30 30 29 29 29 29
Wind_Direction_500mb
258 274 290 296 280 279 275 266 260 273 277 276 287 303 356 301 99 139 234 254 254 251 279 301 306 312 322 330 333 328 324 320 320 320 320 319 317 315 312 312 311 310 310 309
281 271 277 275 270 270 270 268 266 267 269 284 3 29 72 54 27 319 333 315 313 269 282 285 287 289 303 313 318 321 324 319 314 313 313 312 310 308 306 304 303 304 303 302
254 137 317 294 253 249 253 255 259 268 274 347 21 54 59 26 296 288 290 305 303 303 281 284 287 289 289 293 292 300 309 313 312 312 311 309 307 306 305 305 303 301 299 299
258 67 241 250 212 317 288 282 284 262 167 186 169 347 318 300 281 274 279 289 287 283 289 296 293 288 288 296 299 307 313 315 315 313 310 310 308 306 303 301 299 297 295 293
211 204 279 302 292 293 309 290 25 263 191 166 13 313 287 304 331 305 294 291 287 294 297 296 292 293 298 302 310 313 313 312 310 307 305 304 302 301 299 298 295 292 290 289
179 212 226 125 95 140 95 272 219 184 134 99 301 261 266 301 297 295 292 291 289 292 294 291 296 301 305 308 311 313 312 309 308 306 303 300 299 296 294 290 289 290 291 289
236 247 262 190 121 99 123 270 157 162 182 248 215 255 290 284 282 283 284 284 275 283 289 294 299 304 308 311 313 313 312 310 308 307 307 305 302 299 298 294 291 288 287 288
178 240 274 172 123 167 210 181 208 218 256 262 286 299 286 282 275 278 271 267 274 289 296 304 308 312 314 315 315 314 312 311 311 311 311 310 309 307 305 300 293 289 287 287
187 200 208 213 222 235 259 273 286 275 277 279 286 280 287 280 271 265 268 272 284 293 300 306 311 314 313 313 314 313 312 313 314 315 316 315 314 313 312 309 298 292 289 289
92 247 254 265 265 269 276 282 283 276 286 287 283 281 279 263 263 269 276 282 289 299 305 310 314 313 314 316 315 314 315 316 319 320 320 319 318 315 310 305 300 294 293 291
246 253 257 262 264 269 272 277 277 279 276 282 280 273 263 259 265 273 280 284 294 302 307 311 313 314 317 319 317 317 317 320 324 323 319 318 316 314 307 302 299 298 295 293
244 244 249 252 263 271 270 264 271 279 283 283 277 271 265 261 266 271 276 287 295 300 307 312 314 316 322 319 319 319 322 326 322 323 327 322 319 316 316 302 300 297 295 293
251 258 261 265 270 278 277 277 278 277 282 279 272 264 263 265 267 273 283 289 294 302 310 314 315 319 322 320 323 326 325 323 329 330 327 323 319 314 308 319 313 307 303 300
257 259 263 264 267 273 273 274 274 273 271 264 260 260 260 263 268 276 283 290 299 307 312 313 314 321 320 325 327 328 325 331 334 334 330 327 321 316 315 311 310 317 331 317
260 260 263 270 269 266 269 272 273 272 268 261 259 263 269 270 274 277 282 292 301 306 312 311 314 321 324 328 332 328 334 338 339 336 333 329 326 323 320 315 312 311 318 325
263 260 256 257 264 266 266 264 262 263 263 262 264 266 267 270 272 279 288 299 301 305 311 309 314 320 327 331 333 333 340 346 342 336 335 335 335 332 325 320 318 316 319 324
246 251 255 258 262 265 268 269 264 260 261 263 265 268 271 274 278 284 291 295 297 302 305 306 312 319 328 333 334 334 348 344 341 342 341 340 339 335 336 330 326 327 330 334
256 258 263 269 270 268 266 266 263 259 258 265 269 271 274 278 284 291 297 296 296 297 300 299 308 318 326 333 332 343 345 346 346 346 345 345 344 346 345 342 341 344 345 349
254 257 259 261 264 264 264 264 263 264 264 266 268 272 276 282 290 293 296 292 294 297 297 296 304 313 322 332 333 344 348 349 351 353 351 350 353 358 0 360 360 1 2 4
244 252 258 262 260 254 254 258 263 268 273 276 280 284 289 291 289 288 287 288 293 289 285 294 305 311 321 334 338 344 352 357 0 359 359 2 4 8 14 16 18 19 20 20
230 239 244 243 248 257 263 271 278 284 286 287 288 289 288 287 288 288 286 288 287 277 282 291 297 307 325 336 341 345 352 2 7 7 9 11 14 16 19 23 26 26 27 30
217 225 240 257 271 282 288 292 293 292 291 289 287 289 291 292 292 286 282 283 273 266 279 284 291 307 323 334 337 339 350 360 5 9 13 15 16 18 20 22 24 26 27 29
202 246 279 290 299 304 307 303 301 301 302 302 299 298 294 294 290 282 279 276 274 281 283 288 295 307 318 327 328 335 344 351 359 4 8 11 14 16 18 21 23 24 25 27
244 288 304 313 314 314 317 317 316 316 314 313 309 306 300 297 283 277 280 267 273 275 282 289 298 306 314 320 324 329 333 339 345 350 355 359 3 7 11 14 17 20 22 24
301 318 321 323 326 330 333 331 328 322 319 320 322 322 316 303 287 273 273 278 277 281 287 293 302 307 313 319 322 325 329 334 337 342 344 345 346 350 353 356 360 3 6 9
334 337 340 343 344 343 343 342 340 338 330 326 326 307 314 304 294 288 285 284 286 290 295 301 305 309 315 321 322 324 327 331 335 338 339 339 341 344 346 348 349 350 352 355
95 74 31 3 359 354 348 346 345 341 336 326 330 316 316 314 309 305 302 299 300 301 308 310 310 313 314 315 317 322 325 327 330 332 333 335 337 337 340 343 345 346 347 347
Wind_Speed_850mb
26 27 26 21 27 32 25 31 30 46 45 47 41 24 5 8 9 7 9 18 18 17 22 26 28 31 36 42 44 46 47 50 55 59 64 68 72 75 79 80 80 80 80 72
13 9 17 30 42 31 34 39 42 43 46 34 21 14 6 7 5 6 11 15 19 18 19 24 27 33 41 49 53 53 54 59 61 63 69 75 80 83 82 82 86 91 92 92
12 2 7 15 38 36 30 35 34 36 23 5 6 8 10 8 12 18 19 18 19 25 29 30 32 33 38 42 42 48 60 66 69 73 76 78 78 80 84 88 90 89 90 95
8 9 7 18 4 9 16 20 9 2 6 12 7 4 10 15 28 24 15 17 23 26 30 39 48 47 46 51 50 63 70 74 77 77 81 85 90 95 97 99 103 107 109 106
6 11 17 25 16 17 10 25 2 7 12 12 8 16 20 14 7 13 23 26 29 31 34 38 43 50 57 60 65 72 75 78 78 79 86 94 100 106 109 110 114 118 121 125
4 9 14 2 11 11 4 19 15 14 11 6 6 2 9 20 32 39 38 35 34 36 43 47 51 55 61 69 72 77 77 82 88 94 97 98 100 103 105 103 108 112 126 130
23 15 13 3 12 15 8 21 14 26 12 14 9 23 47 39 37 36 32 31 36 43 46 47 53 61 68 73 76 82 88 96 102 103 103 102 104 102 104 104 106 111 114 124
3 6 19 6 11 13 9 4 12 25 35 36 44 54 42 41 39 33 30 39 48 52 50 54 61 67 73 80 89 97 102 105 106 105 104 104 102 103 98 90 88 92 94 101
16 11 8 20 25 29 32 35 48 45 50 53 56 47 44 42 33 37 45 46 50 51 56 58 62 67 79 89 96 100 101 102 103 103 101 97 91 87 84 78 74 79 79 85
2 16 33 66 65 62 66 63 57 46 55 50 47 51 46 44 47 48 46 48 49 53 56 59 62 73 83 87 89 92 96 99 98 98 97 88 82 81 80 80 79 78 81 88
28 31 53 63 66 69 72 67 66 62 54 51 54 49 44 46 47 47 49 46 48 50 54 59 69 79 79 79 82 87 91 92 93 93 86 82 78 76 71 74 75 82 88 91
26 37 45 47 57 53 47 49 41 47 56 59 59 53 46 44 45 45 45 44 46 48 54 65 74 75 72 71 74 81 87 89 85 81 81 80 81 83 70 66 68 72 78 82
48 71 72 68 64 65 63 63 58 54 60 58 55 49 47 43 42 44 42 42 43 48 59 67 70 69 63 67 71 75 81 81 78 78 77 76 78 81 87 87 73 73 71 72
81 73 61 72 60 63 56 52 53 51 50 47 49 47 42 42 44 41 40 41 44 53 60 61 62 58 59 64 68 74 76 73 71 74 75 76 78 81 84 88 92 95 82 74
76 69 62 64 59 52 51 51 51 49 47 44 43 42 43 43 40 39 38 40 48 56 54 55 55 51 54 59 66 72 72 71 70 74 73 72 72 73 77 81 85 90 94 90
62 55 49 49 48 45 42 43 43 45 45 42 40 40 40 40 40 38 38 43 54 56 47 49 47 47 50 56 62 68 66 71 69 69 67 66 67 72 77 76 78 75 76 75
36 40 43 38 34 36 40 40 37 38 40 38 38 39 41 41 41 40 40 43 50 49 44 43 42 43 44 49 57 61 65 65 63 63 61 61 63 65 65 68 70 69 69 66
41 38 34 33 31 32 34 33 33 33 34 36 38 40 41 43 45 45 45 48 48 43 35 34 35 36 38 42 47 51 55 57 56 55 56 57 58 57 59 60 59 60 61 58
31 29 27 24 22 24 26 28 31 32 32 36 39 41 44 45 46 50 50 52 46 42 29 28 29 30 32 33 38 43 47 50 48 49 50 52 53 53 55 55 54 53 54 57
20 18 18 18 20 22 24 28 32 32 32 39 44 47 49 47 48 51 49 51 39 36 28 26 26 26 26 26 31 36 40 44 47 46 46 47 47 50 53 54 55 56 56 56
18 17 18 18 19 21 24 28 33 36 38 43 49 52 53 52 46 45 47 45 27 28 24 23 24 22 22 24 27 30 33 38 42 44 45 46 46 46 49 52 55 57 57 57
17 15 14 15 18 21 26 30 36 39 41 42 43 46 47 46 40 36 33 34 24 25 23 22 19 19 21 22 24 25 27 30 34 37 39 41 43 45 47 48 50 51 52 53
10 9 14 18 21 25 27 33 35 37 38 36 37 36 37 36 30 30 28 20 21 21 21 19 18 18 19 21 22 23 23 25 27 30 34 36 38 40 42 43 44 45 47 48
6 9 15 20 24 28 28 28 29 28 28 27 26 25 26 25 20 18 23 22 22 20 18 18 18 19 20 22 22 23 23 24 25 26 27 29 31 33 34 36 37 38 38 38
6 10 14 18 20 22 23 23 20 18 19 20 20 22 20 18 20 17 20 19 18 17 16 16 17 19 20 21 21 22 23 24 25 26 27 28 29 29 30 31 32 33 33 34
4 7 8 10 13 15 17 19 19 17 19 18 13 18 18 17 16 15 15 16 15 15 15 16 17 17 18 19 20 21 21 22 23 25 26 28 28 29 29 29 30 31 31 32
4 4 4 7 11 14 15 16 17 17 17 16 17 16 17 16 15 15 15 15 15 15 15 16 17 18 19 20 21 22 23 24 25 25 26 28 29 30 30 30 29 29 29 29
Wind_Direction_850mb
258 274 290 296 280 279 275 266 260 273 277 276 287 303 356 301 99 139 234 254 254 251 279 301 306 312 322 330 333 328 324 320 320 320 320 319 317 315 312 312 311 310 310 309
281 271 277 275 270 270 270 268 266 267 269 284 3 29 72 54 27 319 333 315 313 269 282 285 287 289 303 313 318 321 324 319 314 313 313 312 310 308 306 304 303 304 303 302
254 137 317 294 253 249 253 255 259 268 274 347 21 54 59 26 296 288 290 305 303 303 281 284 287 289 289 293 292 300 309 313 312 312 311 309 307 306 305 305 303 301 299 299
258 67 241 250 212 317 288 282 284 262 167 186 169 347 318 300 281 274 279 289 287 283 289 296 293 288 288 296 299 307 313 315 315 313 310 310 308 306 303 301 299 297 295 293
211 204 279 302 292 293 309 290 25 263 191 166 13 313 287 304 331 305 294 291 287 294 297 296 292 293 298 302 310 313 313 312 310 307 305 304 302 301 299 298 295 292 290 289
179 212 226 125 95 140 95 272 219 184 134 99 301 261 266 301 297 295 292 291 289 292 294 291 296 301 305 308 311 313 312 309 308 306 303 300 299 296 294 290 289 290 291 289
236 247 262 190 121 99 123 270 157 162 182 248 215 255 290 284 282 283 284 284 275 283 289 294 299 304 308 311 313 313 312 310 308 307 307 305 302 299 298 294 291 288 287 288
178 240 274 172 123 167 210 181 208 218 256 262 286 299 286 282 275 278 271 267 274 289 296 304 308 312 314 315 315 314 312 311 311 311 311 310 309 307 305 300 293 289 287 287
187 200 208 213 222 235 259 273 286 275 277 279 286 280 287 280 271 265 268 272 284 293 300 306 311 314 313 313 314 313 312 313 314 315 316 315 314 313 312 309 298 292 289 289
92 247 254 265 265 269 276 282 283 276 286 287 283 281 279 263 263 269 276 282 289 299 305 310 314 313 314 316 315 314 315 316 319 320 320 319 318 315 310 305 300 294 293 291
246 253 257 262 264 269 272 277 277 279 276 282 280 273 263 259 265 273 280 284 294 302 307 311 313 314 317 319 317 317 317 320 324 323 319 318 316 314 307 302 299 298 295 293
244 244 249 252 263 271 270 264 271 279 283 283 277 271 265 261 266 271 276 287 295 300 307 312 314 316 322 319 319 319 322 326 322 323 327 322 319 316 316 302 300 297 295 293
251 258 261 265 270 278 277 277 278 277 282 279 272 264 263 265 267 273 283 289 294 302 310 314 315 319 322 320 323 326 325 323 329 330 327 323 319 314 308 319 313 307 303 300
257 259 263 264 267 273 273 274 274 273 271 264 260 260 260 263 268 276 283 290 299 307 312 313 314 321 320 325 327 328 325 331 334 334 330 327 321 316 315 311 310 317 331 317
260 260 263 270 269 266 269 272 273 272 268 261 259 263 269 270 274 277 282 292 301 306 312 311 314 321 324 328 332 328 334 338 339 336 333 329 326 323 320 315 312 311 318 325
263 260 256 257 264 266 266 264 262 263 263 262 264 266 267 270 272 279 288 299 301 305 311 309 314 320 327 331 333 333 340 346 342 336 335 335 335 332 325 320 318 316 319 324
246 251 255 258 262 265 268 269 264 260 261 263 265 268 271 274 278 284 291 295 297 302 305 306 312 319 328 333 334 334 348 344 341 342 341 340 339 335 336 330 326 327 330 334
256 258 263 269 270 268 266 266 263 259 258 265 269 271 274 278 284 291 297 296 296 297 300 299 308 318 326 333 332 343 345 346 346 346 345 345 344 346 345 342 341 344 345 349
254 257 259 261 264 264 264 264 263 264 264 266 268 272 276 282 290 293 296 292 294 297 297 296 304 313 322 332 333 344 348 349 351 353 351 350 353 358 0 360 360 1 2 4
244 252 258 262 260 254 254 258 263 268 273 276 280 284 289 291 289 288 287 288 293 289 285 294 305 311 321 334 338 344 352 357 0 359 359 2 4 8 14 16 18 19 20 20
230 239 244 243 248 257 263 271 278 284 286 287 288 289 288 287 288 288 286 288 287 277 282 291 297 307 325 336 341 345 352 2 7 7 9 11 14 16 19 23 26 26 27 30
217 225 240 257 271 282 288 292 293 292 291 289 287 289 291 292 292 286 282 283 273 266 279 284 291 307 323 334 337 339 350 360 5 9 13 15 16 18 20 22 24 26 27 29
202 246 279 290 299 304 307 303 301 301 302 302 299 298 294 294 290 282 279 276 274 281 283 288 295 307 318 327 328 335 344 351 359 4 8 11 14 16 18 21 23 24 25 27
244 288 304 313 314 314 317 317 316 316 314 313 309 306 300 297 283 277 280 267 273 275 282 289 298 306 314 320 324 329 333 339 345 350 355 359 3 7 11 14 17 20 22 24
301 318 321 323 326 330 333 331 328 322 319 320 322 322 316 303 287 273 273 278 277 281 287 293 302 307 313 319 322 325 329 334 337 342 344 345 346 350 353 356 360 3 6 9
334 337 340 343 344 343 343 342 340 338 330 326 326 307 314 304 294 288 285 284 286 290 295 301 305 309 315 321 322 324 327 331 335 338 339 339 341 344 346 348 349 350 352 355
95 74 31 3 359 354 348 346 345 341 336 326 330 316 316 314 309 305 302 299 300 301 308 310 310 313 314 315 317 322 325 327 330 332 333 335 337 337 340 343 345 346 347 347